Location: Mielec
(50.2838°N, 21.4481°E)
Time: 05:38:49
(UTC+02:00)

ISS - Visible Passes

Search period start: 26 April 2019 00:00
Search period end: 06 May 2019 00:00
Orbit: 408 x 410 km, 51.6° (Epoch: 26 April)

Date Brightness Start Highest point End Pass type
(mag) Time Alt. Az. Time Alt. Az. Time Alt. Az.
01 May -1.9 04:31:50 10° SSW 04:34:28 22° SE 04:37:07 10° E visible
02 May -1.4 03:41:56 10° S 03:43:50 14° SE 03:45:43 10° ESE visible
03 May -3.0 04:25:57 10° SW 04:29:04 41° SSE 04:32:14 10° E visible
04 May -2.4 03:36:36 18° SSW 03:38:19 27° SE 03:41:12 10° E visible
05 May -1.9 02:47:31 18° SE 02:47:36 18° SE 02:49:57 10° E visible
05 May -3.7 04:20:27 10° WSW 04:23:45 70° SSE 04:27:04 10° ENE visible
